Millington, TN

11:35 AM CST on November 22, 2019 (GMT -0600)
Millington Municipal

Weather History for KNQA - October, 2019

Change the Weather History Date:

Sunday, October 20, 2019

  Actual Average Record
Temperature  
Mean Temperature 68 °F -  
Max Temperature 78 °F 72 °F 86 °F (2005)
Min Temperature 59 °F 50 °F 37 °F (1999)
Cooling Degree Days 4    
Growing Degree Days 18 (Base 50)    
Moisture  
Dew Point 60 °F    
Average Humidity 84    
Maximum Humidity 100    
Minimum Humidity 50    
Precipitation  
Precipitation 0.00 in - - ()
Sea Level Pressure  
Sea Level Pressure 29.82 in    
Wind  
Wind Speed 3 mph (SE)    
Max Wind Speed 10 mph    
Max Gust Speed 15 mph    
Visibility 6 miles    
Events Fog    
Averages and records for this station are not official NWS values.
T = Trace of Precipitation, MM = Missing Value Source: NWS Daily Summary

Daily Weather History Graph

Daily Weather History Graph

Search for Another Location

Airport or City:

Astronomy

Oct. 20, 2019 Rise Set
Actual Time 7:09 AM CDT 6:18 PM CDT
Civil Twilight 6:44 AM CDT 6:43 PM CDT
Nautical Twilight 6:14 AM CDT 7:13 PM CDT
Astronomical Twilight 5:44 AM CDT 7:42 PM CDT
Moon 11:35 PM CDT (10/20) 1:29 PM CDT (10/20)
Length of Visible Light 11h 59m
Length of Day
11h 08m
Waning Gibbous, 59% of the Moon is Illuminated
Oct 20
Waning Gibbous
Oct 21
Last Quarter
Oct 27
New
Nov 4
First Quarter
Nov 12
Full

Hourly Weather History & Observations

Time (CDT) Temp. Dew Point Humidity Pressure Visibility Wind Dir Wind Speed Gust Speed Precip Events Conditions
12:15 AM 59.0 °F 57.2 °F 94% 29.80 in 0.2 mi Variable 3.5 mph - N/A Fog Fog
12:35 AM 59.0 °F 57.2 °F 94% 29.80 in 0.2 mi SSE 3.5 mph - N/A Fog Fog
12:55 AM 59.0 °F 57.2 °F 94% 29.81 in 0.2 mi Calm Calm - N/A Fog Fog
1:15 AM 59.0 °F 57.2 °F 94% 29.81 in 0.2 mi Calm Calm - N/A Fog Fog
1:35 AM 59.0 °F 59.0 °F 100% 29.81 in 0.2 mi SSE 4.6 mph - N/A Fog Fog
1:55 AM 59.0 °F 59.0 °F 100% 29.81 in 0.2 mi SE 5.8 mph - N/A Fog Fog
2:15 AM 59.0 °F 59.0 °F 100% 29.81 in 0.2 mi Variable 3.5 mph - N/A Fog Fog
2:35 AM 59.0 °F 59.0 °F 100% 29.81 in 0.2 mi Calm Calm - N/A Fog Fog
2:55 AM 59.0 °F 59.0 °F 100% 29.81 in 0.2 mi Calm Calm - N/A Fog Fog
3:15 AM 59.0 °F 59.0 °F 100% 29.81 in 0.2 mi Calm Calm - N/A Fog Fog
3:35 AM 59.0 °F 59.0 °F 100% 29.81 in 0.2 mi Variable 3.5 mph - N/A Fog Fog
4:15 AM 59.0 °F 59.0 °F 100% 29.82 in 0.2 mi Calm Calm - N/A Fog Fog
4:35 AM 59.0 °F 59.0 °F 100% 29.82 in 0.2 mi Calm Calm - N/A Fog Fog
4:55 AM 59.0 °F 59.0 °F 100% 29.83 in 0.2 mi Calm Calm - N/A Fog Fog
5:00 AM 59.0 °F 59.0 °F 100% 29.83 in 0.2 mi Calm Calm - N/A Fog Fog
5:30 AM 59.0 °F 59.0 °F 100% 29.84 in 0.2 mi Calm Calm - N/A Fog Fog
5:50 AM 59.0 °F 59.0 °F 100% 29.84 in 0.8 mi Calm Calm - N/A Fog Fog
6:50 AM 59.0 °F 59.0 °F 100% 29.86 in 0.8 mi Calm Calm - N/A Fog Fog
7:50 AM 59.0 °F 59.0 °F 100% 29.87 in 1.0 mi Calm Calm - N/A Fog Fog
8:50 AM 60.8 °F 60.8 °F 100% 29.89 in 1.0 mi Calm Calm - N/A Fog Fog
9:50 AM 60.8 °F 60.8 °F 100% 29.90 in 5.0 mi SE 3.5 mph - N/A   Overcast
10:50 AM 66.2 °F 62.6 °F 88% 29.89 in 10.0 mi SE 3.5 mph - N/A   Clear
11:50 AM 71.6 °F 59.0 °F 64% 29.90 in 10.0 mi ENE 5.8 mph - N/A   Clear
12:50 PM 75.2 °F 57.2 °F 53% 29.87 in 10.0 mi SE 5.8 mph - N/A   Clear
1:50 PM 77.0 °F 57.2 °F 50% 29.84 in 10.0 mi ESE 5.8 mph - N/A   Clear
2:50 PM 78.8 °F 59.0 °F 51% 29.82 in 10.0 mi SSE 9.2 mph - N/A   Clear
3:50 PM 78.8 °F 59.0 °F 51% 29.81 in 10.0 mi SE 8.1 mph 15.0 mph N/A   Partly Cloudy
4:50 PM 77.0 °F 60.8 °F 57% 29.81 in 10.0 mi SE 6.9 mph - N/A   Scattered Clouds
5:50 PM 75.2 °F 60.8 °F 61% 29.81 in 10.0 mi SE 5.8 mph - N/A   Scattered Clouds
6:35 PM 73.4 °F 62.6 °F 69% 29.80 in 10.0 mi Variable 4.6 mph 11.5 mph N/A   Clear
6:55 PM 71.6 °F 62.6 °F 73% 29.80 in 10.0 mi Calm Calm 11.5 mph N/A   Clear
7:15 PM 69.8 °F 62.6 °F 78% 29.81 in 10.0 mi SE 5.8 mph - N/A   Clear
7:35 PM 69.8 °F 62.6 °F 78% 29.81 in 10.0 mi Variable 6.9 mph - N/A   Clear
7:55 PM 69.8 °F 60.8 °F 73% 29.81 in 10.0 mi SE 6.9 mph - N/A   Mostly Cloudy
8:15 PM 71.6 °F 60.8 °F 69% 29.81 in 10.0 mi SE 10.4 mph - N/A   Overcast
8:35 PM 69.8 °F 60.8 °F 73% 29.81 in 10.0 mi SE 8.1 mph - N/A   Mostly Cloudy
8:55 PM 69.8 °F 60.8 °F 73% 29.81 in 10.0 mi SE 6.9 mph 12.7 mph N/A   Clear
9:15 PM 68.0 °F 60.8 °F 78% 29.82 in 10.0 mi Variable 6.9 mph - N/A   Clear
9:35 PM 68.0 °F 60.8 °F 78% 29.82 in 10.0 mi SE 6.9 mph - N/A   Clear
9:55 PM 68.0 °F 60.8 °F 78% 29.82 in 10.0 mi SE 8.1 mph - N/A   Scattered Clouds
10:15 PM 68.0 °F 60.8 °F 78% 29.82 in 10.0 mi SE 4.6 mph - N/A   Overcast
10:35 PM 66.2 °F 60.8 °F 83% 29.82 in 10.0 mi Variable 4.6 mph - N/A   Mostly Cloudy
10:55 PM 66.2 °F 60.8 °F 83% 29.81 in 10.0 mi Variable 5.8 mph - N/A   Overcast
11:15 PM 66.2 °F 60.8 °F 83% 29.80 in 10.0 mi Calm Calm - N/A   Mostly Cloudy
11:35 PM 66.2 °F 60.8 °F 83% 29.79 in 10.0 mi Variable 4.6 mph - N/A   Scattered Clouds